Базар-Коргон

Киргизия     41˚01′43″N   72˚44′28″E
темп.,
°C
ветер,
м/с
пор.,
м/с
влажн.,
%
обл.,
%
осадки,
мм/ч
давл.,
гПа
погр.,
м
6 декабря, вс
вс600:00св2264100 0.0 103346
03:00вюв116496 0.0 103323
06:00−1˚вюв226698 0.0 103345
09:00−1˚юв1165100 0.0 103436
12:00+2˚ю115398 0.0 1031279
15:00+3˚ююз115056 0.0 1029471
18:00+1˚в126436 0.0 103222
21:00−1˚всв227278 0.0 103124
7 декабря, пн
пн700:00−1˚в126889 0.0 103024
03:00−1˚в1263100 0.0 102923
06:00−1˚всв1261100 0.0 102726
09:00вюв1160100 0.0 102721
12:00+2˚юв1150100 0.1 1026220
15:00+3˚вюв1250100 0.1 1025335
18:00+2˚св1167100 0.1 102722
21:00+1˚всв0176100 0.0 102822
8 декабря, вт
вт800:00+1˚всв1187100 0.1 102921
03:00зсз1193100 0.3 1029111
06:00−1˚з1298100 1.4 102997
09:00−1˚зюз1198100 1.3 103092
12:00з1197100 2.0 1028137
15:00+1˚зюз2298100 0.4 1027166
18:00зюз1199100 1.3 103090
21:00всв0098100 0.4 103284
9 декабря, ср
ср900:00всв0097100 0.5 103377
03:00−1˚зюз1196100 0.0 103472
06:00−1˚в0197100 0.3 103461
09:00−1˚всв0190100 0.0 103530
12:00+1˚юз1186100 0.0 1032275
15:00+2˚ю118245 0.0 1030424
18:00вюв228938 0.0 103144
21:00−2˚в22849 0.0 103129
10 декабря, чт
чт1000:00−2˚всв22714 0.0 103026
03:00−2˚всв22660 0.0 103023
06:00−2˚всв22650 0.0 103027
09:00−2˚всв22648 0.0 103145
12:00+1˚в115533 0.0 1029196
15:00+3˚ю005383 0.0 1028340
18:00всв226788 0.0 103121
21:00−1˚всв226748 0.0 103226